RH
62 63 66 68 67 74 78 83 94 94 92 93 89 88 84 78 77 74 72 71 67 65 63 61 60 60 61 61 59 61 66 63 58 51 51 56 55 59 61 56 55 52 51 49 48 50 50 48 48 50 51 48 45 44 45 44 44 45 45 46 47 45 48 52 52 50 48 48 49 49 50 53 53 51 49 46 46 44 42 43 43 43 44 44 45 48 48 49 51 59 66 55 54 59 55 55 58
65 66 66 69 70 78 85 87 94 95 92 92 89 85 82 78 75 72 71 69 63 61 60 58 58 61 60 55 52 55 61 60 54 48 48 55 56 58 57 53 53 51 50 48 47 49 49 46 47 50 50 47 45 44 45 45 46 47 47 46 46 48 54 57 54 51 50 52 53 51 52 56 55 54 52 49 50 49 48 48 46 45 44 43 45 47 47 50 51 59 66 57 55 59 53 53 60
72 71 68 71 73 80 86 90 92 92 92 91 88 83 82 81 77 72 70 64 57 56 58 58 59 62 58 51 47 48 50 50 47 44 49 56 56 57 58 55 52 49 48 47 47 47 46 44 44 46 47 44 44 44 44 46 46 46 46 45 46 52 59 60 56 53 54 55 55 54 53 55 56 54 53 52 54 55 54 53 50 49 48 46 46 46 47 50 50 57 66 59 55 59 56 55 60
74 71 70 72 79 85 88 91 91 90 91 89 86 84 85 83 75 71 66 58 55 56 59 59 58 59 52 46 45 42 43 46 46 46 50 53 52 55 58 56 51 49 50 50 47 44 42 41 42 43 43 43 42 43 43 45 45 45 47 47 47 51 57 59 57 55 55 55 55 54 53 56 57 57 56 56 56 56 56 57 57 57 55 53 52 51 51 51 54 61 63 57 54 59 61 60 61
71 70 71 74 82 87 87 90 90 89 87 88 87 85 86 81 73 69 61 56 58 61 63 61 58 58 51 49 47 40 42 44 47 49 48 49 50 53 56 56 55 54 54 52 47 41 39 39 41 42 41 42 42 42 43 42 44 46 48 47 44 48 54 56 57 53 54 55 55 55 55 57 57 58 58 57 57 58 60 61 62 61 61 60 59 58 57 56 60 65 63 56 56 62 66 65 64
70 72 73 76 83 85 87 90 92 87 81 84 87 85 83 77 73 66 58 59 62 64 65 62 58 54 50 50 47 43 45 45 47 47 46 48 50 54 57 57 57 56 55 50 44 39 38 39 41 40 40 40 39 39 41 42 45 48 46 44 44 48 51 53 54 53 54 55 55 56 56 57 57 58 59 59 59 61 62 62 62 62 62 63 63 62 61 61 63 66 65 60 59 64 66 66 65
70 73 77 81 85 86 90 91 90 86 80 82 85 86 80 73 71 64 61 63 62 65 63 58 53 48 50 49 49 52 50 46 46 45 46 49 49 52 55 56 55 55 54 46 39 38 39 39 39 38 37 36 35 37 39 42 46 47 44 44 45 47 49 50 52 54 56 56 57 57 56 57 57 58 60 60 60 61 61 62 61 61 62 64 65 65 64 65 67 69 68 64 60 63 64 63 63
69 74 81 84 85 88 90 89 86 85 84 83 83 84 78 72 72 65 65 65 63 65 60 57 51 47 52 49 50 55 52 48 45 45 46 47 48 49 53 55 55 52 48 41 37 38 37 37 35 33 33 32 33 37 40 43 45 45 44 44 45 47 49 49 51 55 57 58 58 59 58 56 57 60 60 59 58 58 59 60 60 61 62 63 64 65 66 67 68 69 69 67 64 65 66 64 64
71 77 84 84 87 89 87 86 85 86 86 82 81 82 78 75 74 69 69 68 66 65 63 62 52 47 51 49 54 56 50 48 44 44 46 47 50 51 54 57 55 50 43 38 36 35 34 33 31 30 30 30 33 38 41 44 45 44 44 44 45 48 49 50 52 56 58 58 57 57 57 55 57 62 60 56 56 57 57 58 59 59 61 64 65 65 66 68 68 69 71 71 68 68 68 65 65
75 78 82 84 88 89 84 83 86 88 85 81 79 80 78 75 75 74 73 72 68 67 67 63 51 45 46 50 60 56 47 45 44 46 46 48 52 54 56 59 57 50 41 36 35 34 32 30 29 30 30 32 36 40 43 44 45 46 44 43 45 46 48 52 53 56 58 57 56 55 56 55 56 59 57 56 57 57 57 58 59 60 63 65 67 68 68 70 69 69 70 69 68 66 65 63 61
76 78 82 86 88 88 84 82 85 85 82 81 82 80 78 75 76 77 75 73 70 66 65 62 53 46 44 53 59 51 45 45 45 48 49 50 54 54 55 58 56 48 40 36 35 32 29 29 29 31 32 36 41 42 43 44 45 46 43 42 42 44 49 53 55 55 56 56 54 53 54 55 54 54 56 57 59 59 59 61 62 63 63 65 66 68 68 68 66 64 64 64 64 62 60 58 56
75 79 83 86 86 86 87 85 83 81 81 82 82 82 79 77 79 79 77 75 71 67 65 62 55 45 46 57 55 46 46 45 45 50 51 51 53 54 56 55 52 46 41 37 34 32 29 29 30 33 37 41 43 42 42 43 43 43 40 40 41 45 50 53 54 54 53 54 54 54 55 56 55 54 55 58 60 61 62 63 63 61 61 62 64 64 62 62 62 61 59 58 58 57 55 53 52
72 75 80 85 86 85 86 85 83 82 83 83 82 84 80 78 83 80 77 75 72 68 65 63 54 43 45 53 51 46 46 45 45 49 51 54 53 54 57 54 51 49 43 37 33 31 30 30 33 37 41 43 42 40 40 42 41 40 39 41 43 46 50 53 54 53 53 55 55 57 57 55 55 55 56 58 60 61 61 62 61 59 58 59 61 59 57 57 59 58 55 53 51 50 49 50 51
70 71 75 82 86 85 85 85 85 84 85 84 83 82 79 80 84 80 77 75 71 67 65 64 56 46 42 44 48 46 44 45 45 47 51 55 54 52 55 53 51 50 45 40 35 33 33 33 36 40 44 45 41 36 38 40 39 38 40 42 44 46 50 53 54 54 54 55 55 57 57 54 54 56 57 59 60 60 59 59 59 57 55 56 58 56 54 54 54 54 52 50 48 46 46 48 49
69 70 76 83 84 85 85 84 84 83 83 83 81 80 79 81 82 78 77 75 71 68 68 65 57 47 41 40 43 45 43 42 43 46 48 52 53 52 53 52 50 49 45 42 39 40 40 37 39 44 46 44 40 35 36 39 38 37 40 42 44 47 50 53 55 56 56 56 55 55 55 53 54 55 58 60 59 58 57 56 56 55 54 54 54 52 50 50 49 49 49 47 45 44 44 44 41
65 69 79 83 81 82 83 82 83 82 81 81 81 80 78 79 80 75 75 75 72 69 67 64 60 50 44 43 41 40 41 39 40 44 46 48 52 54 54 52 49 47 46 45 45 46 45 41 43 48 49 46 41 38 37 37 37 37 42 45 47 49 51 54 56 56 57 56 54 55 55 54 54 55 57 59 59 58 55 54 54 53 51 50 48 46 45 44 44 44 45 44 43 41 39 36 32
59 67 78 80 81 82 81 81 82 81 79 80 80 78 76 77 80 78 75 74 71 69 68 65 63 56 48 46 41 38 38 38 40 43 45 47 49 51 53 52 47 47 48 48 49 49 48 46 48 53 53 51 47 42 39 38 39 41 46 48 48 50 52 55 57 58 59 57 56 58 58 56 55 54 55 56 58 57 55 52 52 51 48 46 44 43 43 42 42 43 42 42 40 38 36 34 34
54 66 76 78 83 81 76 76 78 79 77 78 78 76 75 76 80 79 76 74 72 69 69 64 63 62 52 44 41 37 37 37 40 42 44 46 46 48 51 52 48 49 51 50 51 52 50 49 50 54 52 49 49 46 42 43 45 47 49 47 49 52 53 56 58 59 60 58 57 58 59 58 56 54 53 54 56 57 56 53 51 49 47 45 45 43 42 42 42 41 41 40 39 38 38 39 41
51 65 78 80 80 74 67 68 73 77 77 76 76 76 76 75 77 77 74 76 74 69 68 65 67 68 52 41 41 37 37 38 41 42 43 44 44 47 50 51 49 50 53 52 54 53 49 48 49 52 50 47 50 50 47 45 46 47 48 48 52 55 52 55 59 58 57 56 55 57 58 58 56 55 54 54 55 57 56 54 52 50 48 47 46 45 44 43 43 41 39 39 39 40 40 41 43
51 61 76 76 73 70 64 63 68 75 78 77 76 75 76 75 76 76 74 73 72 68 65 68 71 66 49 40 41 38 37 38 39 41 42 42 42 45 48 48 46 49 52 52 55 52 47 48 49 51 51 50 52 52 47 47 48 47 47 49 53 55 51 54 59 59 56 54 55 58 58 55 54 54 55 57 55 54 53 54 52 50 50 49 48 47 47 47 46 44 44 43 44 47 47 47 50
56 59 68 70 69 69 65 61 66 73 76 77 77 76 76 77 76 77 76 72 72 70 67 71 69 59 47 41 40 38 37 37 38 39 39 40 40 43 47 46 45 47 49 50 50 48 47 47 48 52 53 51 52 51 47 48 50 49 51 52 53 53 51 55 60 61 57 55 57 58 56 52 54 54 55 58 56 52 49 48 49 49 51 49 48 47 47 48 47 48 50 51 53 57 57 55 54
56 58 64 69 70 69 65 64 65 71 74 76 78 79 80 79 76 78 80 75 74 74 73 73 65 53 47 42 39 38 37 37 37 36 36 38 41 44 47 45 45 47 46 46 46 46 49 48 46 50 53 52 51 51 48 48 51 54 56 56 56 53 51 56 60 59 57 56 55 56 58 56 57 57 55 59 59 56 52 50 49 48 49 49 48 48 46 46 49 51 51 50 52 52 52 50 48
51 57 63 67 66 63 63 64 62 68 74 76 78 81 81 81 79 80 82 80 75 75 76 72 62 51 47 44 39 38 39 37 37 36 35 38 43 45 47 46 46 46 44 43 43 47 50 48 45 48 52 53 51 53 50 49 53 55 56 57 61 59 54 58 59 56 55 55 53 53 59 59 58 58 58 59 60 58 56 54 51 49 49 48 47 49 47 45 46 48 47 45 44 44 45 46 45
44 52 59 61 60 57 60 60 57 66 74 74 76 79 80 80 80 79 81 82 79 77 75 72 66 54 48 47 43 40 39 37 37 37 38 40 43 44 45 47 46 44 43 41 41 48 50 46 45 47 51 51 50 54 54 54 54 55 59 60 61 61 57 56 57 57 57 55 53 51 54 56 54 56 59 59 59 57 56 56 54 52 53 50 49 51 50 48 46 45 44 44 45 46 46 46 46
36 43 52 58 56 55 60 59 56 61 70 74 73 73 77 78 78 80 79 79 81 79 75 72 70 60 49 48 48 45 41 39 38 37 40 41 40 40 42 45 46 44 42 39 40 49 50 48 47 44 47 49 50 55 57 56 56 63 70 63 57 58 57 56 55 57 57 56 55 51 51 54 52 54 58 59 59 56 55 58 57 57 57 54 53 55 53 52 50 48 48 48 49 48 48 49 48
32 38 46 54 55 55 56 58 57 56 64 73 70 68 74 77 80 82 79 79 82 80 77 73 69 65 55 49 51 48 44 40 35 35 38 40 39 37 39 42 43 43 40 36 41 49 49 49 50 42 41 47 51 55 57 55 58 68 71 61 55 53 53 55 55 54 55 55 55 52 51 55 55 55 58 58 59 58 56 57 57 57 57 54 53 55 54 53 51 52 53 51 49 49 49 50 48
32 35 41 48 53 55 50 53 59 54 59 71 70 69 73 80 84 82 78 81 82 79 79 74 68 66 59 55 53 47 47 42 37 39 41 44 42 36 36 39 39 39 36 35 43 49 45 46 48 40 37 45 52 54 55 55 58 61 59 58 55 53 55 57 59 56 53 53 53 54 54 57 59 58 58 55 54 56 56 55 53 53 53 53 54 56 55 53 51 52 53 50 47 48 47 46 45
29 33 38 42 48 52 47 48 57 53 56 67 69 72 76 81 84 80 77 79 79 79 79 72 68 66 59 58 54 47 49 47 42 43 43 45 43 36 36 36 35 36 34 36 45 48 45 47 46 39 36 42 51 53 50 51 55 52 52 56 52 54 61 59 59 55 51 53 53 54 56 57 58 58 56 54 54 54 53 53 52 51 50 50 52 53 53 51 48 48 48 47 44 44 44 42 42
28 31 36 40 43 48 46 45 53 53 55 62 66 74 80 80 81 80 78 78 78 78 75 70 69 66 60 58 54 50 50 47 42 42 42 41 40 38 34 32 32 33 32 36 45 47 47 50 45 39 36 40 48 50 47 47 49 50 52 53 49 56 64 58 56 51 46 49 50 52 55 54 53 54 53 54 55 54 53 53 52 51 49 48 47 47 47 46 45 44 44 45 43 43 44 43 42
25 28 34 39 40 43 43 44 50 52 56 62 64 74 82 79 79 80 79 79 77 76 72 70 69 64 61 59 54 52 50 45 40 40 40 35 38 38 30 29 30 29 31 37 45 45 46 48 44 39 36 38 45 47 47 46 47 53 53 48 49 57 60 56 52 47 43 45 48 51 52 52 51 51 53 55 56 55 54 53 52 50 47 46 44 45 47 46 46 45 44 44 43 45 45 43 44
21 24 29 34 38 38 38 43 50 52 56 60 60 71 80 80 79 79 80 79 75 74 70 68 68 62 62 59 53 51 49 47 42 39 35 31 36 36 28 28 26 26 32 38 44 44 45 45 44 41 35 37 41 44 48 46 48 55 52 47 51 56 57 56 52 48 46 44 47 50 49 51 50 47 50 53 56 57 55 53 52 49 45 44 43 44 47 46 44 43 45 46 45 46 44 42 44
20 23 27 29 33 37 39 43 47 49 52 55 58 68 75 77 79 79 81 79 74 75 71 67 65 62 63 58 50 50 49 48 45 40 33 29 34 34 28 27 23 25 32 37 42 43 44 44 44 41 34 35 38 42 48 47 49 53 50 52 55 56 55 55 52 50 48 45 45 47 47 49 47 45 44 44 51 56 55 53 53 52 48 46 44 44 44 43 42 43 44 45 45 44 43 41 40
20 20 24 26 29 36 43 46 45 45 48 51 57 65 70 73 76 78 81 81 78 79 76 71 66 62 64 57 51 53 50 48 48 42 36 33 34 32 29 25 22 25 30 37 42 43 44 43 44 41 35 35 37 41 46 47 49 50 50 55 57 59 57 54 53 52 48 45 44 44 44 46 45 45 43 42 47 53 52 49 49 51 50 45 44 46 45 43 43 47 48 45 44 43 42 43 40
20 18 20 23 28 38 46 51 50 48 51 53 55 61 67 71 74 76 79 82 82 82 79 76 69 64 65 58 55 57 51 49 50 44 39 38 36 32 29 26 23 24 28 36 42 43 44 42 44 42 37 36 35 38 43 46 48 46 49 55 57 61 63 60 58 56 53 48 47 45 42 44 44 44 46 46 46 47 48 46 44 45 47 45 44 47 46 42 42 45 47 48 48 45 43 44 42
18 18 18 19 28 38 42 49 52 51 54 55 56 60 63 67 71 74 77 79 82 83 80 77 72 68 70 62 57 56 50 49 50 46 41 39 37 33 29 25 24 23 26 34 41 43 42 39 41 42 40 38 33 33 39 43 44 44 49 53 55 60 64 65 61 60 59 53 50 48 45 43 43 45 48 48 46 43 45 48 46 44 47 49 48 48 48 45 44 44 43 47 51 47 43 44 44
17 17 15 16 28 36 37 45 52 52 54 55 59 63 61 62 68 72 76 78 80 81 81 80 76 73 75 69 59 56 52 47 49 49 44 40 39 33 28 25 23 22 26 31 39 43 40 37 38 40 41 39 34 32 36 40 39 43 49 50 54 60 62 63 62 63 62 56 52 50 49 47 44 46 48 48 48 46 46 46 47 45 47 51 50 49 51 48 47 46 42 44 48 47 44 44 45
22 23 18 18 28 35 35 41 48 49 51 55 58 63 62 60 63 69 75 77 77 79 81 82 80 75 77 75 64 58 56 49 49 52 46 42 40 33 28 26 23 23 26 29 35 41 40 37 36 39 40 39 36 33 35 38 38 43 48 46 53 61 60 59 61 64 62 57 54 50 53 52 47 46 47 49 51 51 49 45 46 46 46 50 51 48 47 45 45 45 43 44 45 47 46 44 44
26 31 27 22 25 34 36 38 45 48 50 52 53 58 65 63 61 66 72 74 75 80 83 81 79 77 79 80 71 63 61 55 53 54 49 45 41 35 30 28 26 26 27 29 32 37 39 37 36 37 38 37 36 34 35 39 39 42 47 46 51 58 57 56 58 61 62 57 53 52 54 52 49 49 48 49 51 52 51 47 45 44 44 49 53 50 45 42 42 39 40 45 46 46 46 44 44
24 32 35 28 25 36 43 42 45 48 49 50 51 56 64 67 66 64 66 69 72 78 81 79 80 80 81 82 77 69 64 58 56 55 51 47 43 39 34 30 28 28 29 31 31 33 36 37 36 36 37 36 36 35 37 41 41 42 47 47 50 56 57 57 56 59 63 57 51 54 56 52 49 51 49 46 49 50 49 46 43 43 45 45 47 46 40 39 39 36 40 45 47 45 43 43 45
24 31 37 32 27 36 44 44 43 45 46 48 53 55 59 67 69 63 62 66 69 74 80 81 83 82 78 79 78 72 66 60 57 55 51 47 44 40 37 33 31 29 30 32 31 32 34 36 36 35 36 36 36 36 38 43 43 42 47 47 50 55 55 59 59 59 65 59 49 51 54 55 54 53 50 47 48 49 47 44 42 43 42 41 41 38 33 34 35 38 44 45 45 44 40 42 45
23 28 36 34 28 31 37 39 40 43 43 43 49 56 61 66 66 60 59 62 65 70 76 79 81 79 74 77 80 77 71 64 58 55 52 50 47 42 38 35 33 31 31 33 32 32 33 34 35 33 35 36 37 37 38 43 43 42 46 46 51 54 52 59 62 58 62 61 54 50 50 54 57 55 51 49 47 46 47 47 46 43 40 41 41 34 32 32 32 39 45 44 44 43 39 41 43
22 23 31 34 31 30 32 34 36 38 39 37 40 54 62 60 59 60 57 58 64 69 71 73 77 78 76 80 82 79 74 68 63 57 52 52 51 46 40 36 34 33 33 33 33 33 32 34 33 31 33 34 36 38 39 43 42 42 45 45 50 53 50 57 61 59 60 61 59 56 52 51 53 52 49 50 47 44 47 49 50 45 40 43 41 36 37 34 34 40 42 43 46 44 39 40 41
22 22 25 32 34 32 30 32 33 33 35 35 33 44 58 61 60 61 59 58 64 69 69 68 72 76 78 81 80 77 74 71 68 62 56 55 56 52 44 37 34 34 34 33 32 31 32 34 31 29 31 33 37 38 38 42 42 41 43 43 47 50 49 53 58 63 61 59 62 61 56 52 56 57 52 51 50 47 48 48 49 47 42 44 44 42 43 39 39 42 40 44 46 42 40 39 40
26 29 27 29 34 33 31 32 32 32 32 34 32 34 49 63 62 60 60 61 64 68 70 68 70 74 75 76 78 75 73 70 69 66 61 58 58 56 47 40 35 34 33 32 31 30 31 32 29 27 29 33 38 37 35 39 39 39 40 41 44 47 49 50 55 63 60 58 65 65 58 54 57 61 54 51 52 49 48 44 46 50 46 45 44 42 43 41 42 42 41 43 41 38 37 38 39
27 34 31 28 30 32 36 36 32 32 30 33 37 32 39 55 58 58 63 65 65 68 72 72 72 75 76 74 77 76 73 71 69 67 64 62 61 57 49 42 38 36 34 32 32 31 31 32 29 26 27 31 36 35 33 35 35 35 37 38 42 43 47 48 52 60 58 58 66 64 59 53 52 59 57 52 51 46 45 41 41 48 49 46 42 40 43 45 42 39 41 41 36 34 35 39 39
22 29 31 28 27 30 36 38 32 32 29 32 37 31 34 51 56 58 66 70 69 69 74 75 70 72 76 73 73 75 74 73 72 68 67 66 64 62 55 46 41 39 37 34 33 31 32 33 31 26 24 28 34 33 31 32 32 34 34 36 39 40 44 47 49 55 55 57 63 58 55 53 49 53 56 50 45 43 44 43 39 44 48 45 44 44 45 45 40 35 38 37 32 32 33 37 38
19 26 31 29 30 31 34 37 35 35 32 30 34 30 34 51 57 57 62 66 68 69 74 76 69 66 70 69 67 69 71 74 74 71 69 66 64 67 66 56 47 42 40 39 34 31 33 34 31 28 24 25 30 31 30 31 30 32 32 34 38 39 42 47 48 52 53 54 58 56 53 55 49 47 50 48 44 42 42 42 40 41 46 46 48 49 43 39 36 33 35 34 31 32 33 35 36
21 30 35 33 35 34 34 38 38 38 35 31 32 29 29 40 50 54 55 58 65 69 70 72 69 64 64 65 63 62 67 71 73 71 70 67 64 66 68 64 59 51 44 42 37 32 34 35 32 28 25 24 27 28 29 31 30 30 30 32 37 39 41 47 48 50 51 49 53 54 50 51 52 50 50 47 44 40 38 40 42 42 47 47 46 45 41 38 38 34 33 32 31 33 34 33 34
25 34 39 39 40 40 39 41 39 36 35 33 31 28 30 39 47 51 53 57 65 68 66 66 65 62 61 63 61 60 65 70 72 73 71 67 65 67 69 67 66 62 51 44 41 36 36 36 33 28 25 24 26 26 27 30 30 29 28 29 33 37 40 46 48 49 49 47 48 52 48 45 48 53 53 48 45 42 36 37 42 43 45 45 41 43 44 42 41 37 34 32 31 31 32 31 32
26 34 42 42 43 45 43 41 40 37 33 33 30 28 39 53 56 54 56 57 61 64 64 64 62 61 59 58 58 59 64 70 74 76 72 69 68 68 67 65 65 66 59 50 45 39 38 40 36 30 25 23 24 25 25 28 30 28 27 28 29 33 37 43 47 48 49 46 45 49 49 44 43 46 50 48 48 47 39 35 37 39 40 39 39 44 46 42 40 38 34 32 32 30 29 30 31
27 31 40 42 40 42 40 37 38 38 33 32 30 30 42 57 59 58 59 59 61 62 62 61 61 58 55 54 55 56 62 69 74 76 73 72 71 65 62 64 64 66 64 61 58 49 42 43 41 33 27 25 24 24 24 26 29 28 27 28 28 29 33 39 42 45 47 45 44 47 49 47 45 44 45 47 49 48 41 34 33 34 35 35 35 39 41 38 37 36 33 33 36 33 28 29 30
34 35 40 40 38 38 36 33 33 33 32 29 32 39 47 53 56 56 57 59 61 61 60 61 60 57 56 58 57 54 61 70 73 75 74 71 69 64 64 67 67 67 66 66 70 66 52 46 45 38 29 27 26 24 24 25 26 28 27 26 28 27 29 35 38 40 43 43 44 46 47 48 48 46 44 43 43 41 38 33 30 30 30 31 32 33 35 36 34 35 34 33 36 35 29 29 30
40 41 40 38 38 36 33 32 30 29 30 26 34 49 53 52 55 56 57 59 61 59 58 61 60 54 54 58 56 53 59 69 73 74 74 73 70 67 68 69 68 69 70 68 71 74 68 58 51 44 33 28 29 26 25 26 25 27 26 25 27 25 26 31 34 36 40 43 44 45 45 46 49 49 46 42 39 36 34 33 29 28 28 29 30 30 33 37 34 34 35 34 37 37 30 28 31
39 40 40 37 37 37 34 35 32 29 27 24 33 48 49 51 56 57 58 58 57 58 57 60 59 54 54 55 53 53 57 66 73 74 75 77 76 72 70 71 71 71 70 69 69 72 78 72 60 53 44 33 31 29 27 27 26 27 26 24 25 25 23 28 33 34 38 43 43 43 43 44 47 49 48 44 40 34 32 31 29 27 26 27 30 30 32 37 37 36 37 36 37 37 31 28 31
36 38 40 37 36 37 35 36 37 32 28 24 33 44 44 50 55 54 57 59 58 58 56 56 57 56 56 55 52 54 58 65 73 74 74 77 77 76 75 76 78 73 68 70 71 70 76 79 70 63 56 45 38 37 34 30 27 29 29 24 24 25 22 25 32 35 37 41 42 41 41 42 44 47 47 44 40 34 30 28 28 29 28 25 26 29 31 32 35 37 37 35 35 34 34 32 30
33 35 36 34 36 37 34 35 36 36 33 26 34 49 50 52 57 55 57 61 59 59 57 55 55 55 57 58 54 53 57 64 71 73 74 77 79 79 79 79 79 75 71 72 73 70 72 78 76 70 67 60 51 48 45 36 31 32 32 27 24 25 23 24 31 35 36 39 41 39 38 39 42 44 43 42 41 37 32 27 25 28 31 27 24 27 29 29 31 34 35 37 36 32 32 33 30
29 31 32 33 34 33 34 34 32 35 38 29 37 60 63 56 59 60 61 61 57 57 59 58 57 54 53 53 52 50 53 59 66 69 72 77 80 79 78 78 78 77 76 75 73 72 73 76 77 74 70 63 56 55 53 46 40 37 35 31 26 25 25 24 28 33 37 39 40 39 37 37 39 41 41 40 39 38 37 31 27 28 31 32 28 27 28 28 28 30 31 36 39 33 29 31 31
26 29 31 32 32 33 34 34 30 31 36 34 44 66 69 59 60 61 61 61 56 55 58 57 55 52 50 49 46 46 49 53 59 65 69 73 76 77 76 76 77 78 80 81 76 72 73 74 73 73 67 57 54 58 58 54 49 43 39 36 30 26 25 25 27 29 35 39 40 40 38 35 36 36 37 38 35 35 37 35 32 33 33 34 32 29 28 28 27 27 28 31 36 35 30 30 30